Hanford, CA

7:21 PM PST on December 15, 2017 (GMT -0800)
Hanford Municipal

Weather History for KHJO - June, 2013

Change the Weather History Date:

Thursday, June 13, 2013

  Actual Average Record
Temperature  
Mean Temperature 74 °F 74 °F  
Max Temperature 88 °F 90 °F 106 °F (2015)
Min Temperature 60 °F 58 °F 53 °F (2017)
Degree Days  
Heating Degree Days 0    
Month to date heating degree days 0  
Since 1 June heating degree days 0  
Since 1 July heating degree days 2324  
Cooling Degree Days 9    
Month to date cooling degree days 190  
Year to date cooling degree days 442  
Since 1 June cooling degree days 190  
Growing Degree Days 24 (Base 50)    
Moisture  
Dew Point 38 °F    
Average Humidity 28    
Maximum Humidity 39    
Minimum Humidity 16    
Precipitation  
Precipitation 0.00 in 0.01 in 0.01 in (2005)
Month to date precipitation 0.00 0.12  
Year to date precipitation 1.60 6.73  
Since 1 July precipitation 3.60  
Snow  
Snow 0.00 in - - ()
Month to date snowfall 0.0  
Since 1 June snowfall 0.0  
Since 1 July snowfall 0.0  
Snow Depth 0.00 in    
Sea Level Pressure  
Sea Level Pressure 29.97 in    
Wind  
Wind Speed 11 mph (NW)    
Max Wind Speed 20 mph    
Max Gust Speed 30 mph    
Visibility 10 miles    
Events      
T = Trace of Precipitation, MM = Missing Value Source: NWS Daily Summary

Daily Weather History Graph

Daily Weather History Graph

Search for Another Location

Airport or City:

Trip Planner

Search our weather history database for the weather conditions in past years. The results will help you decide how hot, cold, wet, or windy it might be!

Date:

Astronomy

Jun. 13, 2013 Rise Set
Actual Time 5:40 AM PDT 8:17 PM PDT
Civil Twilight 5:09 AM PDT 8:47 PM PDT
Nautical Twilight 4:32 AM PDT 9:25 PM PDT
Astronomical Twilight 3:50 AM PDT 10:07 PM PDT
Moon 10:15 AM PDT (6/13) 11:34 PM PDT (6/13)
Length of Visible Light 15h 37m
Length of Day
14h 36m
Waxing Crescent, 22% of the Moon is Illuminated
Jun 13
Waxing Crescent
Jun 16
First Quarter
Jun 23
Full
Jun 29
Last Quarter
Jul 8
New

Hourly Weather History & Observations

Time (PDT) Temp. Dew Point Humidity Pressure Visibility Wind Dir Wind Speed Gust Speed Precip Events Conditions
12:53 AM 72.0 °F 37.9 °F 29% 29.92 in 10.0 mi NNW 15.0 mph - N/A   Clear
1:53 AM 70.0 °F 32.0 °F 25% 29.92 in 10.0 mi NNW 16.1 mph - N/A   Clear
2:53 AM 68.0 °F 30.0 °F 24% 29.93 in 10.0 mi NW 12.7 mph - N/A   Clear
3:53 AM 64.9 °F 34.0 °F 32% 29.94 in 10.0 mi NW 10.4 mph - N/A   Clear
4:53 AM 63.0 °F 35.1 °F 35% 29.96 in 10.0 mi NNW 9.2 mph - N/A   Clear
5:53 AM 60.1 °F 35.1 °F 39% 29.99 in 10.0 mi NNW 8.1 mph - N/A   Clear
6:53 AM 63.0 °F 37.9 °F 40% 30.01 in 10.0 mi NNW 9.2 mph - N/A   Clear
7:53 AM 66.0 °F 39.9 °F 38% 30.03 in 10.0 mi North 8.1 mph - N/A   Clear
8:53 AM 71.1 °F 39.9 °F 32% 30.05 in 10.0 mi NNW 12.7 mph - N/A   Clear
9:53 AM 73.9 °F 39.9 °F 29% 30.06 in 10.0 mi NNW 15.0 mph 19.6 mph N/A   Clear
10:53 AM 75.9 °F 42.1 °F 30% 30.06 in 10.0 mi North 10.4 mph - N/A   Clear
11:53 AM 80.1 °F 42.1 °F 26% 30.04 in 10.0 mi NNW 10.4 mph - N/A   Clear
12:53 PM 82.0 °F 43.0 °F 25% 30.03 in 10.0 mi NNW 10.4 mph 17.3 mph N/A   Clear
1:53 PM 84.9 °F 37.9 °F 19% 30.01 in 10.0 mi WNW 11.5 mph - N/A   Clear
2:53 PM 87.1 °F 39.0 °F 18% 29.99 in 10.0 mi WNW 11.5 mph - N/A   Clear
3:53 PM 88.0 °F 37.0 °F 16% 29.96 in 10.0 mi NNW 11.5 mph 17.3 mph N/A   Clear
4:53 PM 88.0 °F 36.0 °F 16% 29.95 in 10.0 mi NW 16.1 mph 20.7 mph N/A   Clear
5:53 PM 87.1 °F 41.0 °F 20% 29.92 in 10.0 mi NNW 13.8 mph 23.0 mph N/A   Clear
6:53 PM 84.9 °F 39.9 °F 20% 29.93 in 10.0 mi NW 15.0 mph - N/A   Clear
7:53 PM 82.0 °F 39.9 °F 22% 29.93 in 10.0 mi NW 12.7 mph - N/A   Clear
8:53 PM 79.0 °F 37.9 °F 23% 29.92 in 10.0 mi Variable 6.9 mph 29.9 mph N/A   Clear
9:53 PM 75.9 °F 39.9 °F 27% 29.94 in 10.0 mi NW 10.4 mph - N/A   Clear
10:53 PM 73.9 °F 39.0 °F 28% 29.94 in 10.0 mi NW 10.4 mph - N/A   Clear
11:53 PM 71.1 °F 39.0 °F 31% 29.93 in 10.0 mi NW 11.5 mph - N/A   Clear